Showing default

GSAT 18, 41793

Orbit data source: Space-Track

GSAT 18, 41793 is a payload satellite owned by ISRO (IN) in GEO that was launched on Wed, 05 Oct 2016 UTC via an ARIANE 5ECA launch vehicle from the French Guiana (FRGUI). Payload-class satellites include a variety of spacecraft equipped with specific instruments for various scientific and technological missions. These include communications satellites like Starlink; space stations such as the ISS; scientific satellites like the Hubble; Earth observation satellites from companies like Planet Labs, Umbra, and HawkEye 360; GPS; miniature CubeSats for education and research; and military/defense satellites.

Not visible in the next 10 days
Identifier
41793, 2016-060A
Orbit
GEO
Last TLE update
7 hours ago
Origin
Manufacturer
ISRO SAC/Banga
Mission
Operational Civil Communications
Bus & Motor
I3K, ISRO LAM
Mass
3,404 kg wet, ~1,200 kg dry
Launch date (UTC)
2016-10-05 (9 years ago)
Launch vehicle
ARIANE 5ECA
Launch site
French Guiana (FRGUI)
Object type
Payload
Rocket body
Debris
Shape & HBR
Box + 2 Pan, 15.5 m
Radar Cross Section
13.026 m²

Expand to show TLE details & history

TLE from 7 hours ago
0 GSAT 18
1 41793U 16060A   25182.89384619 -.00000072  00000-0  00000-0 0  9993
2 41793   0.0102   3.7343 0004803  65.7041 246.4979  1.00269352 32012
Epoch: 2025-07-01T21:27Z
TLE epoch observation values (Epoch: 2025-07-01T21:27:08.31Z)
Latitude
-0.02295°
Longitude
73.92975°
Altitude
35,794.929 km
Speed
3.074 km/s
True Right ascension
21h 03m 35s
True Declination
0° 01' 23"
Sunlit
Object was in daylight at epoch
Visualization orbit readout
Latitude
0.02408°
Longitude
-175.04487°
Altitude
35,766.492 km
Speed
3.076 km/s
Apparent Right ascension
04h 28m 04s
Apparent Declination
-4° 55' 28"
Sunlit
Object is in daylight
Visualization observer readout
Local Sidereal Time
16:31:19
Azimuth
1.413° NNE
Elevation
-55.001°
Doppler factor
1
Orbital elements
Apogee altitude
35,808.6 km
Perigee altitude
35,768.095 km
Semi-major axis
42,166.484 km
Eccentricity
0.00048
Inclination
0.0102°
RAAN
3.7343°
Arg. of periapsis
65.7041°
True anomaly
Unknown
Mean anomaly
246.4979°
Eccentric anomaly
Unknown
Mean motion
0.25066 °/min
Orbital period
1,436.19 mins
BSTAR
0
Loading historical data...
41793 neighbors
Loading maneuver chart data...
Loading SW <> Apogee altitude chart data...
Loading historical data...
Loading historical data...
Loading historical data...
Loading historical data...
Loading historical data...
Loading historical data...
Loading historical data...
Other satellites on launch #60 in the year 2016 (2016-10-05 UTC)

GSAT 18 Visibility

Observer location: undefined°, undefined°

GSAT 18 is likely not visible in the next few days
Span
Click to sort rows by Start time (UTC) header in descending order
Start Az.
Max El. time (UTC)
Max El. Az.
Max El.
End time (UTC)
End Az.
|